Left ArrowRight Arrow

41.76142, -88.44369

Hourly Observations for February 25, 2016

Temp ( °F °C ) Dew Point ( °F °C ) Humidity (%) Winds ( mph kmh ) Pressure ( in mb ) Visibility ( mi km ) Precip ( " mm )
12:11 am 00:11 Cloudy 35 1.7 28 -2.2 76 76 NNW 20 31 29.80 1009 10 16 0.00 0.00
12:52 am 00:52 Cloudy 34 1.1 28 -2.2 79 79 NNW 21 33 29.75 1008 10 16 0.00 0.00
1:52 am 01:52 Partly Cloudy 34 1.1 27 -2.8 76 76 NNW 17 28 29.77 1008 10 16 0.00 0.00
2:52 am 02:52 Cloudy 34 1.1 28 -2.2 79 79 NW 15 24 29.78 1009 10 16 0.00 0.00
3:52 am 03:52 Cloudy 34 1.1 27 -2.8 76 76 NNW 17 28 29.80 1009 10 16 0.00 0.00
4:42 am 04:42 Cloudy 34 1.1 26 -3.3 73 73 NNW 17 28 29.85 1011 10 16 0.00 0.00
4:52 am 04:52 Cloudy 34 1.1 26 -3.3 73 73 NNW 21 33 29.82 1010 10 16 0.00 0.00
5:13 am 05:13 Cloudy 33 0.6 25 -3.9 72 72 N 20 31 29.85 1011 10 16 0.00 0.00
5:52 am 05:52 Cloudy 32 0 26 -3.3 79 79 NNW 16 26 29.85 1011 10 16 0.00 0.00
6:32 am 06:32 Cloudy with Light Snow 32 0 27 -2.8 82 82 NNW 14 22 29.88 1012 5 8 0.00 0.03
6:49 am 06:49 Cloudy with Light Snow 32 0 28 -2 87 87 NNW 17 28 29.88 1012 5 8 0.00 0.03
6:52 am 06:52 Cloudy with Light Snow 31 -0.6 27 -2.8 85 85 NNW 17 28 29.88 1012 5 8 0.00 0.03
7:03 am 07:03 Cloudy 32 0 26 -3.3 79 79 NNW 13 20 29.88 1012 10 16 0.00 0.03
7:52 am 07:52 Cloudy 32 0 25 -3.9 75 75 NNW 16 26 29.90 1013 10 16 0.00 0.03
8:52 am 08:52 Cloudy 33 0.6 22 -5.6 64 64 NNW 22 35 29.93 1014 10 16 0.00 0.00
9:52 am 09:52 Mostly Cloudy 34 1.1 22 -5.6 61 61 NNW 22 35 29.96 1014 10 16 0.00 0.00
10:52 am 10:52 Cloudy 35 1.7 24 -4.4 64 64 NNW 22 35 29.98 1015 10 16 0.00 0.00
11:52 am 11:52 Mostly Cloudy 36 2.2 24 -4.4 62 62 NNW 22 35 30.01 1016 10 16 0.00 0.00
12:52 pm 12:52 Mostly Cloudy 39 3.9 26 -3.3 60 60 NNW 24 39 30.02 1017 10 16 0.00 0.00
1:52 pm 13:52 Cloudy 38 3.3 24 -4.4 57 57 N 18 30 30.04 1017 10 16 0.00 0.00
2:52 pm 14:52 Cloudy 36 2.2 23 -5 59 59 NNW 18 30 30.06 1018 10 16 0.00 0.00
3:52 pm 15:52 Cloudy 36 2.2 23 -5 59 59 NNW 16 26 30.09 1019 10 16 0.00 0.00
4:52 pm 16:52 Cloudy 34 1.1 23 -5 64 64 NNW 12 19 30.11 1020 10 16 0.00 0.00
5:52 pm 17:52 Cloudy 34 1.1 24 -4.4 67 67 NW 15 24 30.14 1021 10 16 0.00 0.00
6:52 pm 18:52 Cloudy 34 1.1 24 -4.4 67 67 NNW 8 13 30.16 1021 10 16 0.00 0.00
7:52 pm 19:52 Cloudy 33 0.6 25 -3.9 72 72 NW 8 13 30.17 1022 10 16 0.00 0.00
8:52 pm 20:52 Cloudy 33 0.6 25 -3.9 72 72 NNW 9 15 30.18 1022 10 16 0.00 0.00
9:52 pm 21:52 Mostly Clear 30 -1.1 19 -7.2 64 64 NNW 12 19 30.19 1023 10 16 0.00 0.00
10:52 pm 22:52 Partly Cloudy 29 -1.7 20 -6.7 69 69 NNW 7 11 30.21 1023 10 16 0.00 0.00
11:52 pm 23:52 Cloudy 30 -1.1 22 -5.6 72 72 WNW 6 9 30.21 1023 10 16 0.00 0.00

Powered by Vaisala Xweather